N3UC Weather Reports


time (UTC)temp
C
wind
direction
speed
KPH
gust
KPH
rain 1hr
cm
rain 24hr
cm
rain mn
cm
humidity
%
barometer
mb
20260504140516 17 203 1.6 9.7 0.00 0.00 0.00 50 1015.5
20260504130515 13 0.0 0.0 0.00 0.00 0.00 57 1015.7
20260504110516 6 0.0 0.0 0.00 0.00 0.00 29 1016.5
20260504100515 6 0.0 0.0 0.00 0.00 0.00 39 1016.3
20260504081515 7 0.0 0.0 0.00 0.00 0.00 34 1016.7
20260504080535 7 0.0 0.0 0.00 0.00 0.00 34 1016.6
20260504080111 7 0.0 0.0 0.00 0.00 0.00 31 1016.6
20260504050516 5 0.0 0.0 0.00 0.00 0.00 54 1017.0
20260504045516 5 0.0 0.0 0.00 0.00 0.00 53 1017.0
20260504044516 5 0.0 0.0 0.00 0.00 0.00 58 1017.1
20260504043516 5 0.0 0.0 0.00 0.00 0.00 61 1017.1
20260504042515 5 0.0 0.0 0.00 0.00 0.00 60 1017.0
20260504041516 5 0.0 0.0 0.00 0.00 0.00 61 1017.0
20260504040515 5 0.0 0.0 0.00 0.00 0.00 62 1016.8
20260504035516 5 0.0 0.0 0.00 0.00 0.00 62 1016.9
20260504034516 5 0.0 0.0 0.00 0.00 0.00 62 1016.9
20260504033515 5 0.0 0.0 0.00 0.00 0.00 62 1017.0
20260504032516 5 0.0 0.0 0.00 0.00 0.00 62 1017.0
20260504031516 5 0.0 0.0 0.00 0.00 0.00 63 1016.9
20260504030515 5 0.0 0.0 0.00 0.00 0.00 62 1016.9
20260504025516 5 0.0 0.0 0.00 0.00 0.00 62 1016.8
20260504024516 6 0.0 0.0 0.00 0.00 0.00 62 1016.8
20260504023516 6 0.0 0.0 0.00 0.00 0.00 61 1016.8
20260504022536 6 0.0 0.0 0.00 0.00 0.00 61 1016.7
20260504021516 6 0.0 0.0 0.00 0.00 0.00 62 1016.5
20260504020516 6 0.0 0.0 0.00 0.00 0.00 62 1016.5
20260504015516 6 0.0 0.0 0.00 0.00 0.00 63 1016.3
20260504014516 7 0.0 0.0 0.00 0.00 0.00 63 1016.2
20260504013515 7 0.0 0.0 0.00 0.00 0.00 63 1016.2
20260504012535 7 0.0 0.0 0.00 0.00 0.00 63 1015.9
20260504011515 7 0.0 0.0 0.00 0.00 0.00 63 1015.9
20260504010516 8 0.0 0.0 0.00 0.00 0.00 63 1015.9
20260504005515 8 0.0 0.0 0.00 0.00 0.00 62 1015.9
20260504004515 9 0.0 0.0 0.00 0.00 0.00 61 1015.8
20260504003516 10 0.0 0.0 0.00 0.00 0.00 60 1015.7
20260504002515 10 0.0 0.0 0.00 0.00 0.00 57 1015.7
20260504001515 11 0.0 0.0 0.00 0.00 0.00 51 1015.7
20260504000515 11 0.0 0.0 0.00 0.00 0.00 52 1015.7
20260503235555 12 0.0 0.0 0.00 0.00 0.00 54 1015.6
20260503234515 12 0.0 0.0 0.00 0.00 0.00 47 1015.6
20260503233515 13 0.0 0.0 0.00 0.00 0.00 45 1015.5
20260503232515 13 0.0 0.0 0.00 0.00 0.00 41 1015.5
20260503231536 14 0.0 0.0 0.00 0.00 0.00 40 1015.4
20260503230555 15 0.0 0.0 0.00 0.00 0.00 43 1015.3
20260503225535 15 0.0 0.0 0.00 0.00 0.00 41 1015.3
20260503224535 15 0.0 0.0 0.00 0.00 0.00 35 1015.3
20260503223515 15 0.0 11.3 0.00 0.00 0.00 38 1015.3
20260503222515 16 315 1.6 14.5 0.00 0.00 0.00 31 1015.4
20260503221515 16 293 1.6 12.9 0.00 0.00 0.00 32 1015.4
20260503220535 16 338 1.6 17.7 0.00 0.00 0.00 32 1015.4
20260503215515 16 315 1.6 8.0 0.00 0.00 0.00 31 1015.5
20260503214515 16 0.0 6.4 0.00 0.00 0.00 32 1015.5
20260503213555 16 203 1.6 9.7 0.00 0.00 0.00 32 1015.4
20260503212515 16 0.0 0.0 0.00 0.00 0.00 31 1015.7
20260503211515 16 0.0 4.8 0.00 0.00 0.00 33 1015.7
20260503210515 16 293 1.6 14.5 0.00 0.00 0.00 31 1015.7
20260503205515 16 68 1.6 12.9 0.00 0.00 0.00 30 1015.8
20260503204515 16 315 1.6 14.5 0.00 0.00 0.00 32 1015.7
20260503203515 16 0.0 0.0 0.00 0.00 0.00 30 1015.8
20260503202535 16 338 3.2 16.1 0.00 0.00 0.00 29 1015.9
20260503201515 16 270 1.6 14.5 0.00 0.00 0.00 30 1015.9
20260503200515 16 0.0 1.6 0.00 0.00 0.00 32 1016.1
20260503195515 16 45 1.6 8.0 0.00 0.00 0.00 33 1016.2
20260503194535 16 315 1.6 12.9 0.00 0.00 0.00 34 1016.4
20260503193520 16 248 3.2 14.5 0.00 0.00 0.00 32 1016.6
20260503192515 16 0.0 4.8 0.00 0.00 0.00 31 1016.7
20260503191515 16 315 1.6 16.1 0.00 0.00 0.00 33 1017.0
20260503190515 15 293 1.6 6.4 0.00 0.00 0.00 34 1017.0
20260503185515 15 315 1.6 6.4 0.00 0.00 0.00 36 1017.3
20260503184515 15 23 1.6 6.4 0.00 0.00 0.00 41 1017.3
20260503183515 15 293 1.6 8.0 0.00 0.00 0.00 35 1017.3
20260503182535 15 248 3.2 14.5 0.00 0.00 0.00 39 1017.4
20260503181555 15 315 4.8 24.1 0.00 0.00 0.00 38 1017.4
20260503180515 15 248 1.6 8.0 0.00 0.00 0.00 37 1017.5
20260503175515 14 225 1.6 14.5 0.00 0.00 0.00 37 1017.5
20260503174515 14 315 3.2 19.3 0.00 0.00 0.00 37 1017.6
20260503173515 14 293 1.6 9.7 0.00 0.00 0.00 39 1017.9
20260503172515 13 293 4.8 25.7 0.00 0.00 0.00 38 1017.9
20260503171515 14 68 1.6 20.9 0.00 0.00 0.00 37 1018.0
20260503170515 13 315 3.2 14.5 0.00 0.00 0.00 39 1018.1
20260503150517 11 315 3.2 19.3 0.00 0.00 0.00 46 1019.0